Dallas/Ft Worth, TX

7:35 AM CDT on May 27, 2017 (GMT -0500)
Dallas-Fort Worth International

Weather History for KDFW - September, 2013

Change the Weather History Date:

Monday, September 16, 2013

  Actual Average Record
Temperature  
Mean Temperature 87 °F 78 °F  
Max Temperature 97 °F 88 °F 102 °F (1900)
Min Temperature 76 °F 67 °F 50 °F (1903)
Degree Days  
Heating Degree Days 0 0  
Month to date heating degree days 0 0  
Since 1 July heating degree days 0 0  
Cooling Degree Days 22 13  
Month to date cooling degree days 351 248  
Year to date cooling degree days 2579 2430  
Growing Degree Days 37 (Base 50)    
Moisture  
Dew Point 62 °F    
Average Humidity 48    
Maximum Humidity 69    
Minimum Humidity 27    
Precipitation  
Precipitation 0.00 in 0.08 in 2.22 in (1970)
Month to date precipitation 0.26 1.48  
Year to date precipitation 18.93 25.59  
Sea Level Pressure  
Sea Level Pressure 30.00 in    
Wind  
Wind Speed 6 mph (SE)    
Max Wind Speed 15 mph    
Max Gust Speed 19 mph    
Visibility 10 miles    
Events      
T = Trace of Precipitation, MM = Missing Value Source: NWS Daily Summary

Daily Weather History Graph

Daily Weather History Graph

Search for Another Location

Airport or City:

Trip Planner

Search our weather history database for the weather conditions in past years. The results will help you decide how hot, cold, wet, or windy it might be!

Date:

Astronomy

Sep. 16, 2013 Rise Set
Actual Time 7:12 AM CDT 7:32 PM CDT
Civil Twilight 6:47 AM CDT 7:57 PM CDT
Nautical Twilight 6:18 AM CDT 8:26 PM CDT
Astronomical Twilight 5:49 AM CDT 8:55 PM CDT
Moon 5:36 PM CDT (9/16) 4:08 AM CDT (9/16)
Length of Visible Light 13h 09m
Length of Day
12h 20m
Waxing Gibbous, 90% of the Moon is Illuminated
Sep 16
Waxing Gibbous
Sep 19
Full
Sep 26
Last Quarter
Oct 4
New
Oct 11
First Quarter

Hourly Weather History & Observations

Time (CDT) Temp. Heat Index Dew Point Humidity Pressure Visibility Wind Dir Wind Speed Gust Speed Precip Events Conditions
12:53 AM 81.0 °F 81.9 °F 62.1 °F 52% 30.00 in 10.0 mi SE 6.9 mph - N/A   Mostly Cloudy
1:53 AM 82.0 °F 83.0 °F 62.1 °F 51% 30.00 in 10.0 mi SE 4.6 mph - N/A   Mostly Cloudy
2:53 AM 81.0 °F 81.9 °F 62.1 °F 52% 29.99 in 10.0 mi ESE 4.6 mph - N/A   Mostly Cloudy
3:53 AM 77.0 °F - 62.1 °F 60% 29.99 in 10.0 mi SE 5.8 mph - N/A   Scattered Clouds
4:53 AM 78.1 °F - 63.0 °F 60% 30.00 in 10.0 mi Calm Calm - N/A   Mostly Cloudy
5:53 AM 77.0 °F - 63.0 °F 62% 30.01 in 10.0 mi Calm Calm - N/A   Mostly Cloudy
6:53 AM 77.0 °F - 64.0 °F 64% 30.03 in 10.0 mi SSE 3.5 mph - N/A   Mostly Cloudy
7:53 AM 77.0 °F - 66.0 °F 69% 30.05 in 10.0 mi SSE 4.6 mph - N/A   Scattered Clouds
8:53 AM 82.0 °F 84.9 °F 68.0 °F 62% 30.06 in 10.0 mi SSW 4.6 mph - N/A   Partly Cloudy
9:53 AM 84.9 °F 88.8 °F 69.1 °F 59% 30.06 in 10.0 mi SSW 5.8 mph - N/A   Partly Cloudy
10:53 AM 89.1 °F 92.9 °F 68.0 °F 50% 30.06 in 10.0 mi WSW 3.5 mph - N/A   Scattered Clouds
11:53 AM 91.9 °F 94.5 °F 66.0 °F 42% 30.06 in 10.0 mi Calm Calm - N/A   Mostly Cloudy
12:53 PM 91.9 °F 93.3 °F 64.0 °F 39% 30.04 in 10.0 mi East 6.9 mph - N/A   Mostly Cloudy
1:53 PM 93.9 °F 94.8 °F 62.1 °F 35% 30.01 in 10.0 mi ESE 10.4 mph - N/A   Mostly Cloudy
2:53 PM 95.0 °F 94.0 °F 57.9 °F 29% 29.99 in 10.0 mi South 8.1 mph - N/A   Mostly Cloudy
3:53 PM 96.1 °F 95.2 °F 57.9 °F 28% 29.96 in 10.0 mi SE 8.1 mph - N/A   Mostly Cloudy
4:53 PM 93.9 °F 93.2 °F 59.0 °F 31% 29.94 in 10.0 mi East 9.2 mph - N/A   Mostly Cloudy
5:53 PM 95.0 °F 93.7 °F 57.0 °F 28% 29.94 in 10.0 mi SSE 10.4 mph - N/A   Scattered Clouds
6:53 PM 93.0 °F 91.4 °F 55.9 °F 29% 29.94 in 10.0 mi SE 10.4 mph - N/A   Mostly Cloudy
7:53 PM 90.0 °F 88.8 °F 57.9 °F 34% 29.96 in 10.0 mi ESE 5.8 mph - N/A   Mostly Cloudy
8:53 PM 89.1 °F 89.0 °F 61.0 °F 39% 29.98 in 10.0 mi ESE 6.9 mph - N/A   Mostly Cloudy
9:53 PM 87.1 °F 87.5 °F 62.1 °F 43% 30.00 in 10.0 mi SSE 6.9 mph - N/A   Mostly Cloudy
10:53 PM 87.1 °F 87.5 °F 62.1 °F 43% 30.01 in 10.0 mi SE 4.6 mph - N/A   Overcast
11:53 PM 84.9 °F 85.9 °F 63.0 °F 48% 30.01 in 10.0 mi SE 3.5 mph - N/A   Overcast